GW6887 Weather Reports


Display with metric or nautical units.
time (UTC)temp
F
wind
direction
speed
MPH
gust
MPH
rain 1hr
in
rain 24hr
in
rain mn
in
humidity
%
barometer
mb
20260502232707 51 300 3.0 9.0 0.00 0.00 0.00 34 1016.4
20260502232207 51 311 5.0 14.0 0.00 0.00 0.00 34 1016.4
20260502231706 51 299 5.0 13.0 0.00 0.00 0.00 35 1016.5
20260502231206 51 309 4.0 10.0 0.00 0.00 0.00 34 1016.5
20260502230207 51 289 6.0 12.0 0.00 0.00 0.00 36 1016.5
20260502225707 50 264 5.0 12.0 0.00 0.00 0.00 38 1016.5
20260502225206 50 288 5.0 13.0 0.00 0.00 0.00 39 1016.5
20260502224706 51 297 7.0 13.0 0.00 0.00 0.00 38 1016.5
20260502223707 51 294 9.0 13.0 0.00 0.00 0.00 39 1016.5
20260502223206 50 302 9.0 17.0 0.00 0.00 0.00 39 1016.5
20260502220707 50 273 5.0 12.0 0.00 0.00 0.00 41 1016.6
20260502220206 50 291 7.0 16.0 0.00 0.00 0.00 40 1016.6
20260502215707 51 286 7.0 15.0 0.00 0.00 0.00 42 1016.5
20260502215206 50 308 3.0 14.0 0.00 0.00 0.00 43 1016.6
20260502214706 50 233 4.0 13.0 0.00 0.00 0.00 42 1016.7
20260502214206 50 256 6.0 13.0 0.00 0.00 0.00 44 1016.7
20260502213706 50 297 8.0 13.0 0.00 0.00 0.00 43 1016.5
20260502213207 50 265 6.0 12.0 0.00 0.00 0.00 43 1016.6
20260502212706 50 289 6.0 10.0 0.00 0.00 0.00 44 1016.6
20260502212206 50 215 6.0 14.0 0.00 0.00 0.00 44 1016.5
20260502211707 50 286 6.0 13.0 0.00 0.00 0.00 44 1016.6
20260502211206 50 247 8.0 13.0 0.00 0.00 0.00 45 1016.6
20260502210707 50 271 7.0 13.0 0.00 0.00 0.00 44 1016.7
20260502210206 50 302 6.0 12.0 0.00 0.00 0.00 45 1016.8
20260502205706 50 248 6.0 14.0 0.00 0.00 0.00 44 1016.9
20260502205206 50 229 7.0 14.0 0.00 0.00 0.00 44 1016.8
20260502204206 49 230 5.0 16.0 0.00 0.00 0.00 46 1017.1
20260502203706 50 289 8.0 12.0 0.00 0.00 0.00 46 1017.0
20260502203206 49 219 7.0 14.0 0.00 0.00 0.00 45 1017.0
20260502202706 49 301 9.0 15.0 0.00 0.00 0.00 47 1017.1
20260502201206 50 296 10.0 15.0 0.00 0.00 0.00 44 1017.1
20260502200706 50 283 6.0 14.0 0.00 0.00 0.00 43 1017.3
20260502195706 49 252 6.0 12.0 0.00 0.00 0.00 46 1017.3
20260502195206 48 278 5.0 12.0 0.00 0.00 0.00 45 1017.4
20260502194707 48 272 5.0 9.0 0.00 0.00 0.00 47 1017.6
20260502194206 48 212 4.0 8.0 0.00 0.00 0.00 46 1017.6
20260502193706 48 225 4.0 7.0 0.00 0.00 0.00 46 1017.7
20260502192706 47 297 8.0 13.0 0.00 0.00 0.00 49 1017.9
20260502192206 47 291 6.0 10.0 0.00 0.00 0.00 49 1017.9
20260502191206 47 278 5.0 10.0 0.00 0.00 0.00 48 1018.0
20260502190706 47 250 4.0 9.0 0.00 0.00 0.00 49 1018.0
20260502190206 47 249 4.0 10.0 0.00 0.00 0.00 47 1018.1
20260502185706 48 295 6.0 10.0 0.00 0.00 0.00 48 1018.1
20260502185206 47 224 5.0 13.0 0.00 0.00 0.00 49 1018.1
20260502184706 47 288 9.0 15.0 0.00 0.00 0.00 49 1018.1
20260502184206 47 232 5.0 10.0 0.00 0.00 0.00 49 1018.2
20260502183706 47 232 6.0 10.0 0.00 0.00 0.00 49 1018.2
20260502182706 47 276 5.0 10.0 0.00 0.00 0.00 48 1018.3
20260502182206 48 326 5.0 12.0 0.00 0.00 0.00 50 1018.3
20260502181206 48 320 6.0 9.0 0.00 0.00 0.00 46 1018.3
20260502180706 48 233 3.0 12.0 0.00 0.00 0.00 48 1018.4
20260502180206 47 314 9.0 13.0 0.00 0.00 0.00 47 1018.5
20260502170206 45 290 5.0 14.0 0.00 0.00 0.00 52 1018.9
20260502164206 44 285 7.0 12.0 0.00 0.00 0.00 52 1019.1
20260502163706 44 338 6.0 10.0 0.00 0.00 0.00 53 1019.1
20260502162205 44 288 3.0 8.0 0.00 0.00 0.00 54 1019.2
20260502161205 43 300 6.0 10.0 0.00 0.00 0.00 56 1019.3
20260502160706 44 323 5.0 9.0 0.00 0.00 0.00 55 1019.3
20260502160206 44 275 5.0 10.0 0.00 0.00 0.00 54 1019.3
20260502152205 44 298 6.0 10.0 0.00 0.00 0.00 55 1019.4
20260502151706 44 274 5.0 9.0 0.00 0.00 0.00 53 1019.4
20260502151205 43 303 7.0 15.0 0.00 0.00 0.00 54 1019.4
20260502150705 42 9 4.0 10.0 0.00 0.00 0.00 56 1019.5
20260502130705 38 353 3.0 6.0 0.00 0.00 0.00 78 1019.8
20260502130206 38 4 3.0 7.0 0.00 0.00 0.00 79 1019.8
20260502123705 37 310 4.0 7.0 0.00 0.00 0.00 80 1019.8
20260502122705 36 321 2.0 6.0 0.00 0.00 0.00 83 1019.9
20260502122205 36 296 3.0 5.0 0.00 0.00 0.00 83 1019.9
20260502121706 35 324 1.0 5.0 0.00 0.00 0.00 85 1019.9
20260502121205 35 325 3.0 5.0 0.00 0.00 0.00 85 1019.9
20260502120205 35 291 1.0 5.0 0.00 0.00 0.00 85 1019.8
20260502115705 35 313 2.0 5.0 0.00 0.00 0.00 85 1019.8
20260502115205 35 18 1.0 3.0 0.00 0.00 0.00 84 1019.8
20260502114705 34 36 0.0 2.0 0.00 0.00 0.00 85 1019.8
20260502113705 33 56 1.0 2.0 0.00 0.00 0.00 87 1019.7
20260502113205 32 112 0.0 1.0 0.00 0.00 0.00 88 1019.7
20260502111705 30 22 0.0 2.0 0.00 0.00 0.00 96 1019.6
20260502111205 29 79 0.0 1.0 0.00 0.00 0.00 96 1019.6
20260502110705 28 58 1.0 2.0 0.00 0.00 0.00 96 1019.6
20260502110205 28 44 0.0 1.0 0.00 0.00 0.00 96 1019.6
20260502105706 28 76 0.0 1.0 0.00 0.00 0.00 96 1019.5
20260502105205 28 98 0.0 2.0 0.00 0.00 0.00 96 1019.5
20260502104705 28 142 0.0 2.0 0.00 0.00 0.00 96 1019.5
20260502104205 28 124 0.0 1.0 0.00 0.00 0.00 96 1019.5
20260502103705 28 137 0.0 1.0 0.00 0.00 0.00 95 1019.5
20260502103205 28 142 0.0 1.0 0.00 0.00 0.00 95 1019.5
20260502102705 28 140 0.0 1.0 0.00 0.00 0.00 95 1019.4
20260502101705 28 158 0.0 1.0 0.00 0.00 0.00 95 1019.3
20260502101205 28 130 0.0 1.0 0.00 0.00 0.00 95 1019.3
20260502100706 28 123 0.0 1.0 0.00 0.00 0.00 95 1019.3
20260502100205 28 178 0.0 1.0 0.00 0.00 0.00 95 1019.3
20260502090706 30 289 0.0 1.0 0.00 0.00 0.00 91 1019.0
20260502090205 30 339 0.0 1.0 0.00 0.00 0.00 91 1018.9
20260502070705 34 3 0.0 2.0 0.00 0.00 0.00 82 1018.9
20260502070205 34 8 0.0 1.0 0.00 0.00 0.00 81 1018.9
20260502065706 34 26 1.0 2.0 0.00 0.00 0.00 81 1018.9
20260502065205 34 348 0.0 1.0 0.00 0.00 0.00 82 1018.9
20260502064705 34 70 0.0 2.0 0.00 0.00 0.00 83 1018.9
20260502064204 34 120 1.0 2.0 0.00 0.00 0.00 81 1019.0
20260502063704 34 242 0.0 1.0 0.00 0.00 0.00 81 1019.1
20260502062704 35 240 0.0 1.0 0.00 0.00 0.00 81 1019.1
20260502062205 35 172 0.0 1.0 0.00 0.00 0.00 80 1019.1
20260502061705 35 142 0.0 1.0 0.00 0.00 0.00 80 1019.1
20260502061205 35 255 1.0 2.0 0.00 0.00 0.00 78 1019.1
20260502060704 36 177 0.0 1.0 0.00 0.00 0.00 80 1019.1
20260502060204 36 158 0.0 2.0 0.00 0.00 0.00 77 1019.0
20260502055705 36 313 0.0 2.0 0.00 0.00 0.00 76 1019.1
20260502055205 36 317 1.0 3.0 0.00 0.00 0.00 76 1019.1
20260502053704 36 314 1.0 2.0 0.00 0.00 0.00 76 1019.0
20260502053204 36 6 0.0 2.0 0.00 0.00 0.00 76 1019.0
20260502052704 36 326 1.0 2.0 0.00 0.00 0.00 75 1019.0
20260502052205 36 296 1.0 2.0 0.00 0.00 0.00 75 1019.0
20260502051705 36 316 1.0 2.0 0.00 0.00 0.00 74 1018.9
20260502051205 36 310 2.0 3.0 0.00 0.00 0.00 74 1018.9
20260502050704 36 2 1.0 3.0 0.00 0.00 0.00 74 1018.9
20260502045705 36 324 1.0 2.0 0.00 0.00 0.00 74 1018.8
20260502044704 36 321 1.0 2.0 0.00 0.00 0.00 73 1018.8
20260502044205 36 309 1.0 3.0 0.00 0.00 0.00 73 1018.8
20260502043705 37 322 1.0 5.0 0.00 0.00 0.00 72 1018.8
20260502043205 37 319 2.0 5.0 0.00 0.00 0.00 72 1018.7
20260502042205 37 329 1.0 2.0 0.00 0.00 0.00 70 1018.7
20260502041705 37 27 1.0 5.0 0.00 0.00 0.00 70 1018.7
20260502041204 37 13 2.0 5.0 0.00 0.00 0.00 69 1018.7
20260502040205 38 328 2.0 5.0 0.00 0.00 0.00 69 1018.7
20260502035704 38 330 3.0 7.0 0.00 0.00 0.00 68 1018.7
20260502035204 38 323 2.0 5.0 0.00 0.00 0.00 68 1018.7
20260502034704 38 337 2.0 5.0 0.00 0.00 0.00 68 1018.7
20260502034205 38 17 1.0 3.0 0.00 0.00 0.00 68 1018.7
20260502033705 38 332 3.0 8.0 0.00 0.00 0.00 67 1018.7
20260502033205 38 339 2.0 6.0 0.00 0.00 0.00 67 1018.7
20260502032705 38 340 2.0 5.0 0.00 0.00 0.00 67 1018.7
20260502032206 38 296 2.0 5.0 0.00 0.00 0.00 67 1018.7
20260502030205 39 297 2.0 5.0 0.00 0.00 0.00 66 1018.6
20260502025704 39 303 2.0 6.0 0.00 0.00 0.00 65 1018.6
20260502025205 39 291 3.0 6.0 0.00 0.00 0.00 65 1018.6
20260502024704 39 317 3.0 7.0 0.00 0.00 0.00 64 1018.5
20260502023205 39 300 4.0 7.0 0.00 0.00 0.00 62 1018.4
20260502022204 39 309 2.0 9.0 0.00 0.00 0.00 61 1018.4
20260502021704 39 309 3.0 7.0 0.00 0.00 0.00 60 1018.4
20260502021204 39 312 3.0 7.0 0.00 0.00 0.00 60 1018.4
20260502020704 39 318 4.0 7.0 0.00 0.00 0.00 59 1018.3
20260502020204 39 308 3.0 7.0 0.00 0.00 0.00 60 1018.3
20260502015704 40 315 3.0 6.0 0.00 0.00 0.00 59 1018.3
20260502015204 40 298 3.0 10.0 0.00 0.00 0.00 59 1018.2
20260502014204 40 300 5.0 9.0 0.00 0.00 0.00 58 1018.1
20260502013704 40 324 3.0 7.0 0.00 0.00 0.00 58 1018.1
20260502013205 40 304 4.0 7.0 0.00 0.00 0.00 58 1018.0
20260502012704 40 338 3.0 8.0 0.00 0.00 0.00 57 1018.0
20260502012204 41 314 3.0 10.0 0.00 0.00 0.00 57 1017.9
20260502011704 41 313 7.0 10.0 0.00 0.00 0.00 57 1017.9
20260502011204 41 300 5.0 12.0 0.00 0.00 0.00 58 1017.8
20260502010704 41 304 5.0 10.0 0.00 0.00 0.00 58 1017.8
20260502010204 41 308 5.0 10.0 0.00 0.00 0.00 59 1017.8
20260502005705 41 312 4.0 10.0 0.00 0.00 0.00 58 1017.7
20260502005204 41 324 5.0 10.0 0.00 0.00 0.00 57 1017.6
20260502004704 42 303 5.0 12.0 0.00 0.00 0.00 56 1017.6
20260502004204 42 320 4.0 8.0 0.00 0.00 0.00 55 1017.5
20260502003704 42 332 5.0 8.0 0.00 0.00 0.00 54 1017.5
20260502002705 42 354 2.0 8.0 0.00 0.00 0.00 55 1017.5
20260502002204 42 10 3.0 8.0 0.00 0.00 0.00 54 1017.4
20260502001204 42 357 3.0 8.0 0.00 0.00 0.00 55 1017.3
20260502000704 42 344 2.0 7.0 0.00 0.00 0.00 54 1017.3
20260502000205 43 8 5.0 9.0 0.00 0.00 0.00 53 1017.2
20260501235705 43 348 5.0 10.0 0.00 0.00 0.00 53 1017.2
20260501235204 43 13 4.0 10.0 0.00 0.00 0.00 53 1017.1
20260501234204 43 320 4.0 10.0 0.00 0.00 0.00 50 1017.0
20260501233704 43 309 5.0 10.0 0.00 0.00 0.00 52 1017.0